Regional Weather Roundup
Issued by NWS

Home | Current Version | Previous Version | Text Only | Print | Product List | Glossary On
Versions: 1 2 3 4 5 6 7 8 9 10 11 12 13 14 15 16 17 18 19 20 21 22 23 24 25 26 27 28 29 30 31 32 33 34 35 36 37 38 39 40 41
000
ASUS45 KBOU 190210
RWRCO

WEATHER ROUNDUP FOR COLORADO
NATIONAL WEATHER SERVICE PUEBLO CO
700 PM MST SUN FEB 18 2018

NOTE: "FAIR" INDICATES FEW OR NO CLOUDS BELOW 12000 FEET WITH NO
SIGNIFICANT WEATHER AND/OR OBSTRUCTIONS TO VISIBILITY.

COZ001>005-013-030-031-190300-
...NORTHWEST COLORADO...

CITY           SKY/WX    TMP DP  RH WIND       PRES   REMARKS
CRAIG          MOCLDY    45  20  36 SW21G31   29.43F
HAYDEN         CLOUDY    43  19  38 SW8       29.46S
MEEKER         CLOUDY    46  19  34 S13G28    29.46S
RABBIT EARS PA NOT AVBL
STEAMBOAT SPGS FAIR      42  18  38 SE8       29.46S
WALDEN         FAIR      36  18  48 S14       29.50F
$$

COZ006>008-011-190300-
...WEST CENTRAL VALLEYS...

CITY           SKY/WX    TMP DP  RH WIND       PRES   REMARKS
GRAND JUNCTION MOCLDY    56  17  21 SW28G37   29.46F
MONTROSE       PTCLDY    50  17  27 SW22G37   29.57S
EAGLE          MOCLDY    47  18  31 SW17G23   29.55S
RIFLE          PTCLDY    51  19  28 SW17      29.48F
DELTA          NOT AVBL
NUCLA          FAIR      50  16  25 S12       29.64S
$$

COZ017>023-064>068-190300-
...SOUTHWEST COLORADO...

CITY           SKY/WX    TMP DP  RH WIND       PRES   REMARKS
DURANGO        PTCLDY    38  21  50 NE3       29.72F
CORTEZ         PTCLDY    46  16  30 S10       29.68F
PAGOSA SPRINGS CLOUDY    34  20  57 CALM      29.76F
TELLURIDE      PTCLDY    37  17  45 S10G20    29.74F
WOLF CREEK PAS PTCLDY    21  14  73 S36G45    29.79F WCI   2
$$

COZ009-010-012-014-032>034-037-058>063-190300-
...CENTRAL COLORADO...

CITY           SKY/WX    TMP DP  RH WIND       PRES   REMARKS
ASPEN          MOCLDY    38  17  42 VRB5      29.58S
BUENA VISTA    FAIR      42   4  20 W9G23     29.58F
COPPER MTN     PTCLDY    28   7  40 S24G33    29.67F WCI  14
BERTHOUD PASS  FAIR      21  10  63 MISG      29.63F
COTTONWOOD PAS CLEAR     41   5  22 W25G45    29.61R
GUNNISON       CLOUDY    42  16  34 S13G18    29.63S
KREMMLING      PTCLDY    46  14  27 SW25G33   29.53R
LEADVILLE      PTCLDY    30   7  37 SW8G25    29.63S WCI  22
MONARCH PASS   CLEAR     23  10  58 SW38G47   29.78F WCI   4
SALIDA         FAIR      46  11  24 S12       29.69R
SUNLIGHT       MOCLDY    25  18  74 SW22G37   29.62F WCI  10
WILKERSON PASS PTCLDY    28   0  29 SW9G21    29.69R WCI  20
$$

COZ069>075-190300-
...SAN LUIS VALLEY/SANGRE DE CRISTO MOUNTAINS...

CITY           SKY/WX    TMP DP  RH WIND       PRES   REMARKS
ALAMOSA        MOCLDY    36  15  42 SE10      29.71F
DEL NORTE      FAIR      39  14  35 SW14G24   29.70S
LA VETA PASS   PTCLDY    32  18  55 S43G76    29.74R WCI  15
SAGUACHE       PTCLDY    39  12  33 W7        29.69R
$$

COZ035-036-038>040-190300-
...NORTHERN COLORADO FRONT RANGE...

CITY           SKY/WX    TMP DP  RH WIND       PRES   REMARKS
DENVER INTL AP PTCLDY    50  14  23 NE7       29.44R
DMNS CITY PARK NOT AVBL
AURORA         PTCLDY    55   6  14 SW15      29.45R
FRONT RANGE AP PTCLDY    54  14  20 NE10G18   29.45R
ERIE MUNI ARPT FAIR      44  12  28 CALM      29.48R
BOULDER MUN AP FAIR      52  12  20 W6        29.42R
CENTENNIAL     PTCLDY    52   8  17 W9        29.46R
BROOMFIELD     PTCLDY    52   7  16 VRB5      29.44S
LOVELAND       CLEAR     37  26  64 NE28G38   29.49R
LONGMONT       FAIR      47  13  25 CALM      29.45R
$$

COZ041-046-047-076>085-087-088-190300-
...PIKES PEAK/PALMER DIVIDE AND SOUTHERN FOOTHILLS...

CITY           SKY/WX    TMP DP  RH WIND       PRES   REMARKS
COLO. SPRINGS  MOCLDY    51  13  21 SW21      29.51R
A. F. ACADEMY  PTCLDY    50  -1  12 N5        29.49S
SCHRIEVER AFB  NOT AVBL
CHEYENNE MTN   NOT AVBL
ELLICOTT         N/A    N/A N/A N/A SW18      29.50S
FALCON         FAIR      46   9  21 S15       29.53S
FORT CARSON    PTCLDY    54  12  19 SW17G26   29.50R
LIMON          MOCLDY    54   8  16 SW22G29   29.44F
MONUMENT HILL  PTCLDY    43   3  19 S10       29.53S
CANON CITY     CLEAR     57  14  18 W9G31     29.53R
WALSENBURG     FAIR      54  16  22 SW26G35   29.54F
TRINIDAD       PTCLDY    55  13  18 W26G35    29.57F
$$

COZ042>045-048>051-090-091-190300-
...NORTHEAST COLORADO...

CITY           SKY/WX    TMP DP  RH WIND       PRES   REMARKS
GREELEY ARPT   PTCLDY    34  26  72 NE26G35   29.51R WCI  21
AKRON          PTCLDY    28  25  88 NE29G38   29.51R WCI  12
BURLINGTON     CLOUDY    56  14  19 SW18      29.42S
WRAY           FAIR      34  30  86 N28G38    29.49R WCI  20
YUMA           NOT AVBL
STERLING       CLOUDY    30  27  86 NE23G32   29.55R WCI  17
HOLYOKE        CLOUDY    32  28  86 NE24G32   29.54R WCI  19
FORT MORGAN    FAIR      30  24  78 N32G39    29.51R WCI  15
$$

COZ086-089-092>099-190300-
...SOUTHEAST COLORADO...

CITY           SKY/WX    TMP DP  RH WIND       PRES   REMARKS
PUEBLO         MOCLDY    54  14  20 SW10      29.49R
LA JUNTA       PTCLDY    60   7  12 SW22      29.48S
LAMAR          PTCLDY    51   7  16 MISG      29.44S
SPRINGFIELD      N/A     55  14  19 SW17      29.54R
$$





USA.gov is the U.S. government's official web portal to all federal, state and local government web resources and services.